period_start,C,m1,H,J0,J1,J2,J3,J4,J5,JA,JB,JC,JD,JJ,JK,JN,#
2017-03-28 00:00:59,0.10,13.63,0.00,23.31,27.17,30.97,14.55,51.77,1011.21,2023.99,912.07,1227.07,1386.11,599.73,591.99,50.03,0000 0000 0000 0000 000000
2017-03-28 00:06:00,0.01,13.63,0.00,23.32,27.17,30.97,14.55,52.18,1010.90,2023.99,911.99,1227.03,1386.01,600.23,592.30,50.08,0000 0000 0000 0000 000000
2017-03-28 00:11:01,0.08,13.63,0.00,23.32,27.16,30.94,14.42,52.24,1010.76,2023.99,911.65,1227.00,1385.94,599.63,591.56,50.13,0000 0000 0000 0000 000000
2017-03-28 00:16:03,0.19,13.64,0.00,23.26,27.15,30.93,14.55,52.52,1010.76,2023.99,911.01,1226.44,1385.15,600.10,592.14,50.18,0000 0000 0000 0000 000000
2017-03-28 00:21:04,0.13,13.65,0.00,23.21,27.15,30.86,14.51,52.47,1010.77,2023.99,910.44,1226.01,1384.99,599.86,592.01,50.23,0000 0000 0000 0000 000000
2017-03-28 00:26:05,0.06,13.66,0.00,23.20,27.12,30.82,14.49,52.46,1010.78,2023.99,910.01,1225.98,1384.54,599.82,591.92,50.28,0000 0000 0000 0000 000000
2017-03-28 00:31:06,0.21,13.66,0.00,23.14,27.11,30.79,14.56,52.68,1010.77,2024.00,909.47,1225.43,1384.02,600.21,592.50,50.34,0000 0000 0000 0000 000000
2017-03-28 00:36:07,0.11,13.67,0.00,23.08,27.10,30.67,14.52,52.75,1010.77,2024.03,908.97,1225.00,1383.53,600.04,592.50,50.39,0000 0000 0000 0000 000000
2017-03-28 00:41:09,0.27,13.68,0.00,23.03,27.08,30.69,14.62,52.98,1010.76,2024.10,908.19,1224.30,1382.78,600.30,592.80,50.44,0000 0000 0000 0000 000000
2017-03-28 00:46:10,0.17,13.69,0.00,22.98,27.06,30.65,14.59,52.88,1010.78,2024.41,907.72,1223.87,1382.04,599.90,592.58,50.49,0000 0000 0000 0000 000000
2017-03-28 00:51:11,0.26,13.71,0.00,22.91,27.03,30.62,14.50,52.73,1011.13,2024.66,907.03,1223.05,1381.19,599.73,592.77,50.54,0000 0000 0000 0000 000000
2017-03-28 00:56:12,0.03,13.71,0.00,22.82,27.01,30.61,14.57,52.45,1011.25,2024.86,906.93,1222.98,1381.00,600.09,593.37,50.59,0000 0000 0000 0000 000000
2017-03-28 01:01:14,0.21,13.72,0.00,22.78,26.98,30.53,14.57,52.50,1011.26,2024.96,906.16,1222.51,1380.88,599.94,593.35,50.64,0000 0000 0000 0000 000000
2017-03-28 01:06:15,0.09,13.73,0.00,22.77,26.95,30.54,14.58,52.67,1011.26,2024.98,905.96,1222.02,1380.12,600.30,593.76,50.69,0000 0000 0000 0000 000000
2017-03-28 01:11:16,0.11,13.73,0.00,22.69,26.92,30.54,14.53,52.57,1011.31,2024.99,905.30,1222.00,1380.00,600.15,593.66,50.74,0000 0000 0000 0000 000000
2017-03-28 01:16:17,0.04,13.73,0.00,22.62,26.89,30.51,14.61,52.63,1011.65,2024.99,905.00,1221.94,1379.84,600.13,594.03,50.79,0000 0000 0000 0000 000000
2017-03-28 01:21:18,0.11,13.74,0.00,22.60,26.86,30.39,14.56,52.56,1011.73,2025.01,904.94,1221.57,1379.24,600.20,594.20,50.84,0000 0000 0000 0000 000000
2017-03-28 01:26:19,0.15,13.75,0.00,22.60,26.82,30.41,14.59,52.67,1011.73,2025.04,904.31,1221.13,1379.01,599.90,594.06,50.89,0000 0000 0000 0000 000000
2017-03-28 01:31:20,0.08,13.75,0.00,22.54,26.79,30.41,14.63,52.74,1011.74,2025.34,904.01,1221.01,1379.00,600.43,594.65,50.94,0000 0000 0000 0000 000000
2017-03-28 01:36:22,0.09,13.76,0.00,22.43,26.75,30.38,14.61,52.62,1012.09,2025.86,903.98,1221.00,1378.96,599.90,594.56,50.99,0000 0000 0000 0000 000000
2017-03-28 01:41:23,0.16,13.76,0.00,22.38,26.71,30.39,14.68,52.55,1012.22,2025.98,903.32,1220.99,1378.54,600.10,594.80,51.04,0000 0000 0000 0000 000000
2017-03-28 01:46:24,0.05,13.77,0.00,22.35,26.67,30.40,14.71,52.42,1012.24,2025.99,903.00,1220.90,1378.05,600.21,594.83,51.09,0000 0000 0000 0000 000000
2017-03-28 01:51:26,0.06,13.77,0.00,22.34,26.63,30.35,14.56,52.08,1012.62,2026.00,902.96,1220.60,1378.00,599.95,595.01,51.14,0000 0000 0000 0000 000000
2017-03-28 01:56:27,0.17,13.78,0.00,22.33,26.59,30.28,14.59,52.12,1012.71,2026.02,902.22,1220.09,1377.93,600.00,595.02,51.19,0000 0000 0000 0000 000000
2017-03-28 02:01:28,0.06,13.78,0.00,22.31,26.56,30.28,14.65,52.19,1012.71,2026.16,902.00,1220.00,1377.69,600.02,595.19,51.24,0000 0000 0000 0000 000000
2017-03-28 02:06:30,0.13,13.79,0.00,22.30,26.52,30.21,14.68,52.27,1012.86,2026.69,901.95,1220.00,1377.19,600.15,595.35,51.30,0000 0000 0000 0000 000000
2017-03-28 02:11:31,0.14,13.79,0.00,22.28,26.48,30.09,14.63,52.24,1013.19,2026.96,901.35,1220.00,1377.03,599.85,595.37,51.35,0000 0000 0000 0000 000000
2017-03-28 02:16:32,0.01,13.80,0.00,22.29,26.44,30.08,14.61,52.26,1013.19,2026.99,901.00,1219.99,1377.00,599.90,595.43,51.40,0000 0000 0000 0000 000000
2017-03-28 02:21:33,0.01,13.80,0.00,22.30,26.40,30.10,14.70,52.39,1013.14,2027.00,900.89,1219.96,1376.99,600.24,595.56,51.45,0000 0000 0000 0000 000000
2017-03-28 02:26:34,0.16,13.81,0.00,22.30,26.36,29.95,14.67,52.39,1012.89,2027.05,900.13,1219.68,1376.95,600.11,595.21,51.50,0000 0000 0000 0000 000000
2017-03-28 02:31:35,0.17,13.81,0.00,22.31,26.33,29.89,14.55,52.37,1012.72,2027.38,900.00,1219.12,1376.42,599.74,594.90,51.55,0000 0000 0000 0000 000000
2017-03-28 02:36:36,0.09,13.82,0.00,22.26,26.30,29.78,14.58,52.76,1012.71,2027.89,899.96,1219.01,1376.04,600.16,595.34,51.60,0000 0000 0000 0000 000000
2017-03-28 02:41:38,0.12,13.82,0.00,22.19,26.27,29.66,14.59,52.49,1012.71,2027.98,899.45,1219.01,1376.00,600.01,595.34,51.65,0000 0000 0000 0000 000000
2017-03-28 02:46:39,0.02,13.83,0.00,22.20,26.24,29.66,14.68,52.66,1012.69,2027.99,899.01,1219.00,1375.98,600.19,595.47,51.70,0000 0000 0000 0000 000000
2017-03-28 02:51:40,0.10,13.83,0.00,22.20,26.21,29.70,14.65,53.11,1012.59,2027.99,898.71,1218.96,1375.69,599.78,595.07,51.75,0000 0000 0000 0000 000000
2017-03-28 02:56:41,0.15,13.84,0.00,22.19,26.19,29.58,14.64,52.75,1012.62,2028.03,898.16,1218.63,1375.09,600.06,595.37,51.80,0000 0000 0000 0000 000000
2017-03-28 03:01:42,0.06,13.84,0.00,22.19,26.16,29.58,14.62,52.71,1012.37,2028.08,898.00,1218.12,1375.00,599.94,595.03,51.85,0000 0000 0000 0000 000000
2017-03-28 03:06:44,0.09,13.85,0.00,22.14,26.13,29.59,14.53,52.86,1012.27,2028.44,897.93,1218.01,1374.99,600.13,595.31,51.90,0000 0000 0000 0000 000000
2017-03-28 03:11:45,0.23,13.86,0.00,22.06,26.11,29.49,14.57,52.64,1012.29,2028.89,897.16,1218.00,1374.45,599.86,595.33,51.95,0000 0000 0000 0000 000000
2017-03-28 03:16:46,0.03,13.86,0.00,22.07,26.08,29.51,14.62,52.95,1012.23,2028.97,896.99,1217.96,1374.03,600.04,595.35,52.00,0000 0000 0000 0000 000000
2017-03-28 03:21:47,0.08,13.87,0.00,22.09,26.06,29.50,14.61,52.99,1012.22,2028.98,896.88,1217.53,1374.00,599.92,595.38,52.05,0000 0000 0000 0000 000000
2017-03-28 03:26:48,0.20,13.88,0.00,22.09,26.04,29.47,14.58,53.06,1012.22,2028.99,896.13,1217.02,1373.39,600.02,595.39,52.10,0000 0000 0000 0000 000000
2017-03-28 03:31:49,0.01,13.88,0.00,22.08,26.01,29.45,14.54,53.21,1012.23,2028.99,896.00,1216.98,1373.01,599.90,595.44,52.15,0000 0000 0000 0000 000000
2017-03-28 03:36:51,0.10,13.88,0.00,22.02,26.00,29.49,14.60,53.44,1012.28,2028.99,895.62,1216.75,1372.99,600.19,595.61,52.21,0000 0000 0000 0000 000000
2017-03-28 03:41:53,0.14,13.89,0.00,21.96,25.97,29.46,14.59,53.26,1012.40,2029.02,895.07,1216.21,1372.77,599.97,595.65,52.26,0000 0000 0000 0000 000000
2017-03-28 03:46:54,0.07,13.90,0.00,21.99,25.95,29.45,14.57,53.32,1012.49,2029.08,894.97,1216.01,1372.04,599.79,595.38,52.31,0000 0000 0000 0000 000000
2017-03-28 03:51:55,0.18,13.90,0.00,21.99,25.92,29.42,14.56,53.12,1012.70,2029.16,894.22,1215.84,1371.82,599.86,595.54,52.36,0000 0000 0000 0000 000000
2017-03-28 03:56:57,0.18,13.91,0.00,21.98,25.90,29.32,14.57,52.83,1012.77,2029.53,893.99,1215.14,1371.08,599.82,595.68,52.41,0000 0000 0000 0000 000000
2017-03-28 04:01:58,0.12,13.92,0.00,22.01,25.88,29.34,14.62,52.67,1013.03,2029.88,893.71,1215.00,1371.00,599.98,595.94,52.46,0000 0000 0000 0000 000000
2017-03-28 04:06:59,0.09,13.93,0.00,21.99,25.86,29.30,14.65,52.88,1013.20,2029.96,893.09,1215.00,1370.98,600.08,596.12,52.51,0000 0000 0000 0000 000000
2017-03-28 04:12:01,0.01,13.93,0.00,21.95,25.84,29.29,14.68,52.73,1013.20,2029.98,893.00,1215.00,1370.93,600.35,596.44,52.56,0000 0000 0000 0000 000000
2017-03-28 04:17:02,0.05,13.93,0.00,21.87,25.81,29.20,14.71,52.65,1013.25,2029.99,892.96,1214.99,1370.33,600.37,596.77,52.61,0000 0000 0000 0000 000000
2017-03-28 04:22:03,0.13,13.93,0.00,21.89,25.80,29.24,14.60,52.70,1013.53,2029.99,892.34,1214.93,1370.02,599.80,596.26,52.66,0000 0000 0000 0000 000000
2017-03-28 04:27:05,0.07,13.94,0.00,21.89,25.77,29.22,14.60,52.67,1013.69,2029.99,892.01,1214.53,1370.00,599.93,596.52,52.71,0000 0000 0000 0000 000000
2017-03-28 04:32:06,0.03,13.94,0.00,21.89,25.75,29.20,14.66,52.99,1013.75,2030.00,892.00,1214.14,1369.99,600.08,596.88,52.76,0000 0000 0000 0000 000000
2017-03-28 04:37:07,0.11,13.94,0.00,21.90,25.73,29.15,14.60,52.82,1013.89,2030.03,891.70,1214.01,1369.75,600.21,596.93,52.81,0000 0000 0000 0000 000000
2017-03-28 04:42:08,0.10,13.95,0.00,21.91,25.71,29.12,14.61,52.70,1014.12,2030.03,891.02,1213.97,1369.03,600.00,596.76,52.86,0000 0000 0000 0000 000000
2017-03-28 04:47:09,0.03,13.95,0.00,21.87,25.69,29.17,14.60,52.63,1014.18,2030.09,890.98,1213.86,1369.00,600.23,597.02,52.91,0000 0000 0000 0000 000000
2017-03-28 04:52:11,0.22,13.96,0.00,21.87,25.67,29.19,14.65,52.64,1014.19,2030.41,890.58,1213.43,1368.95,600.08,596.97,52.96,0000 0000 0000 0000 000000
2017-03-28 04:57:12,0.14,13.97,0.00,21.89,25.65,29.22,14.62,52.61,1014.21,2030.68,890.03,1213.07,1368.40,600.13,597.01,53.02,0000 0000 0000 0000 000000
2017-03-28 05:02:13,0.05,13.98,0.00,21.88,25.63,29.21,14.68,52.67,1014.18,2030.91,890.00,1213.01,1368.03,600.45,597.16,53.07,0000 0000 0000 0000 000000
2017-03-28 05:07:15,0.03,13.98,0.00,21.88,25.62,29.22,14.66,52.61,1014.18,2030.98,889.85,1213.00,1368.00,600.12,596.95,53.12,0000 0000 0000 0000 000000
2017-03-28 05:12:16,0.11,13.98,0.00,21.90,25.60,29.22,14.64,52.96,1014.20,2030.98,889.17,1212.97,1367.98,600.29,597.08,53.17,0000 0000 0000 0000 000000
2017-03-28 05:17:17,0.04,13.99,0.00,21.89,25.60,29.19,14.58,52.73,1014.52,2030.98,889.01,1212.67,1367.85,599.99,597.03,53.22,0000 0000 0000 0000 000000
2017-03-28 05:22:19,0.07,13.99,0.00,21.88,25.57,29.19,14.59,52.42,1014.95,2030.99,889.00,1212.36,1367.46,599.90,597.29,53.27,0000 0000 0000 0000 000000
2017-03-28 05:27:21,0.05,13.99,0.00,21.89,25.57,29.23,14.63,52.24,1015.16,2031.00,888.95,1212.05,1367.08,599.96,597.55,53.32,0000 0000 0000 0000 000000
2017-03-28 05:32:22,0.08,13.99,0.00,21.89,25.55,29.21,14.58,52.21,1015.27,2031.01,888.52,1212.02,1367.00,599.92,597.44,53.37,0000 0000 0000 0000 000000
2017-03-28 05:37:23,0.04,14.00,0.00,21.86,25.55,29.16,14.68,51.93,1015.63,2031.00,888.04,1212.00,1367.00,600.47,598.21,53.42,0000 0000 0000 0000 000000
2017-03-28 05:42:24,0.01,14.00,0.00,21.83,25.53,29.26,14.66,51.89,1015.64,2031.02,888.00,1212.00,1366.98,600.04,597.96,53.47,0000 0000 0000 0000 000000
2017-03-28 05:47:25,0.02,14.00,0.00,21.89,25.52,29.29,14.62,51.91,1015.64,2031.03,887.98,1211.99,1366.83,599.91,597.64,53.52,0000 0000 0000 0000 000000
2017-03-28 05:52:27,0.10,14.00,0.00,21.91,25.52,29.33,14.65,51.97,1015.64,2031.06,887.67,1211.97,1366.39,600.22,597.86,53.57,0000 0000 0000 0000 000000
2017-03-28 05:57:28,0.09,14.01,0.00,21.95,25.51,29.34,14.70,52.06,1015.64,2031.04,887.05,1211.88,1366.03,600.07,597.75,53.62,0000 0000 0000 0000 000000
2017-03-28 06:02:29,0.10,14.01,0.00,21.98,25.50,29.37,14.65,52.12,1015.64,2031.16,886.99,1211.34,1366.00,599.80,597.38,53.67,0000 0000 0000 0000 000000
2017-03-28 06:07:30,0.08,14.02,0.00,21.95,25.50,29.35,14.70,52.05,1015.64,2031.24,886.68,1211.04,1365.97,600.34,597.90,53.72,0000 0000 0000 0000 000000
2017-03-28 06:12:32,0.13,14.02,0.00,21.95,25.50,29.39,14.61,51.76,1015.65,2031.42,886.10,1211.01,1365.93,599.93,597.47,53.77,0000 0000 0000 0000 000000
2017-03-28 06:17:33,-0.00,14.03,0.00,22.02,25.50,29.39,14.57,51.98,1015.66,2031.24,886.01,1211.00,1365.41,599.91,597.42,53.82,0000 0000 0000 0000 000000
2017-03-28 06:22:34,0.05,14.03,0.00,22.06,25.50,29.35,14.63,51.98,1015.64,2031.37,886.00,1211.00,1365.05,599.98,597.37,53.87,0000 0000 0000 0000 000000
2017-03-28 06:27:35,0.00,14.03,0.00,22.04,25.50,29.39,14.64,51.96,1015.64,2031.40,885.96,1210.98,1365.00,600.35,597.75,53.92,0000 0000 0000 0000 000000
2017-03-28 06:32:36,0.11,14.03,0.00,22.00,25.50,29.41,14.60,51.89,1015.64,2031.32,885.40,1210.93,1365.00,600.11,597.60,53.97,0000 0000 0000 0000 000000
2017-03-28 06:37:38,0.13,14.04,0.00,22.07,25.52,29.42,14.52,51.77,1015.64,2031.55,885.03,1210.47,1364.96,599.55,596.95,54.03,0000 0000 0000 0000 000000
2017-03-28 06:42:39,0.06,14.04,0.00,22.12,25.52,29.47,14.64,51.78,1015.66,2031.61,884.99,1210.09,1364.50,599.91,597.27,54.08,0000 0000 0000 0000 000000
2017-03-28 06:47:41,0.11,14.05,0.00,22.15,25.52,29.44,14.67,51.78,1015.64,2031.47,884.52,1210.01,1364.04,600.21,597.36,54.13,0000 0000 0000 0000 000000
2017-03-28 06:52:42,0.03,14.05,0.00,22.15,25.52,29.44,14.67,52.02,1015.62,2031.46,884.02,1210.00,1364.00,600.18,597.34,54.18,0000 0000 0000 0000 000000
2017-03-28 06:57:43,0.01,14.05,0.00,22.15,25.55,29.47,14.63,52.02,1015.63,2031.54,883.98,1209.99,1363.99,599.93,597.16,54.23,0000 0000 0000 0000 000000
2017-03-28 07:02:44,-0.00,14.05,0.00,22.21,25.55,29.53,14.60,51.92,1015.74,2031.34,883.92,1209.96,1363.74,599.90,596.96,54.28,0000 0000 0000 0000 000000
2017-03-28 07:07:46,0.16,14.06,0.00,22.24,25.57,29.53,14.66,51.99,1016.11,2031.16,883.33,1209.69,1363.17,600.11,597.38,54.33,0000 0000 0000 0000 000000
2017-03-28 07:12:47,0.06,14.06,0.00,22.25,25.58,29.51,14.67,51.92,1016.27,2031.08,883.02,1209.12,1363.00,600.17,597.57,54.38,0000 0000 0000 0000 000000
2017-03-28 07:17:49,0.00,14.06,0.00,22.23,25.60,29.52,14.71,51.80,1016.60,2031.04,883.00,1209.01,1363.00,600.36,597.99,54.43,0000 0000 0000 0000 000000
2017-03-28 07:22:50,0.04,14.06,0.00,22.28,25.61,29.51,14.61,51.85,1016.63,2031.01,882.80,1209.00,1362.93,599.99,597.52,54.48,0000 0000 0000 0000 000000
2017-03-28 07:27:51,0.13,14.07,0.00,22.34,25.62,29.53,14.62,51.88,1016.73,2031.00,882.14,1208.99,1362.28,600.04,597.57,54.53,0000 0000 0000 0000 000000
2017-03-28 07:32:52,0.02,14.07,0.00,22.34,25.64,29.60,14.67,51.90,1016.64,2031.00,881.99,1208.90,1362.02,600.22,597.63,54.58,0000 0000 0000 0000 000000
2017-03-28 07:37:53,0.19,14.08,0.00,22.34,25.65,29.63,14.65,52.02,1016.63,2031.00,881.47,1208.29,1361.99,600.10,597.46,54.63,0000 0000 0000 0000 000000
2017-03-28 07:42:55,0.06,14.09,0.00,22.43,25.67,29.64,14.65,52.03,1016.63,2031.00,881.01,1208.02,1361.69,599.86,597.10,54.68,0000 0000 0000 0000 000000
2017-03-28 07:47:56,0.03,14.09,0.00,22.47,25.69,29.66,14.63,51.93,1016.62,2030.99,880.97,1208.00,1361.07,600.09,597.29,54.73,0000 0000 0000 0000 000000
2017-03-28 07:52:57,0.12,14.10,0.00,22.47,25.71,29.71,14.66,51.93,1016.63,2030.99,880.29,1207.99,1361.00,600.12,597.31,54.78,0000 0000 0000 0000 000000
2017-03-28 07:57:59,0.04,14.10,0.00,22.53,25.74,29.73,14.64,51.99,1016.63,2030.98,880.00,1207.80,1360.91,600.08,597.07,54.83,0000 0000 0000 0000 000000
2017-03-28 08:03:00,0.10,14.10,0.00,22.58,25.76,29.75,14.62,52.03,1016.64,2030.94,879.98,1207.18,1360.27,600.06,596.89,54.89,0000 0000 0000 0000 000000
2017-03-28 08:08:01,0.08,14.11,0.00,22.58,25.79,29.72,14.69,52.12,1016.70,2030.89,879.58,1207.03,1360.02,600.05,597.03,54.94,0000 0000 0000 0000 000000
2017-03-28 08:13:02,-0.01,14.11,0.00,22.62,25.82,29.74,14.62,52.02,1016.75,2030.53,879.07,1207.00,1359.99,599.99,596.87,54.99,0000 0000 0000 0000 000000
2017-03-28 08:18:03,-0.05,14.11,0.00,22.65,25.85,29.75,14.61,52.04,1016.93,2030.10,879.00,1206.99,1359.95,599.89,596.73,55.04,0000 0000 0000 0000 000000
2017-03-28 08:23:04,0.08,14.11,0.00,22.67,25.88,29.74,14.57,52.01,1017.06,2030.03,878.94,1206.77,1359.35,600.01,597.08,55.09,0000 0000 0000 0000 000000
2017-03-28 08:28:05,0.18,14.12,0.00,22.72,25.91,29.70,14.59,52.02,1017.02,2030.00,878.33,1206.14,1359.01,600.09,596.97,55.14,0000 0000 0000 0000 000000
2017-03-28 08:33:07,0.02,14.12,0.00,22.79,25.95,29.67,14.63,52.02,1016.87,2030.00,878.01,1206.01,1359.00,599.90,596.46,55.19,0000 0000 0000 0000 000000
2017-03-28 08:38:08,0.03,14.12,0.00,22.85,25.99,29.70,14.57,52.16,1016.69,2030.00,877.98,1205.99,1358.69,600.02,596.41,55.24,0000 0000 0000 0000 000000
2017-03-28 08:43:09,0.15,14.13,0.00,22.92,26.02,29.76,14.59,52.29,1016.62,2029.97,877.35,1205.93,1358.05,600.00,596.27,55.29,0000 0000 0000 0000 000000
2017-03-28 08:48:11,0.08,14.13,0.00,22.95,26.06,29.80,14.60,52.21,1016.62,2029.90,877.00,1205.39,1357.99,599.71,595.81,55.34,0000 0000 0000 0000 000000
2017-03-28 08:53:12,-0.05,14.13,0.00,22.95,26.10,29.83,14.57,52.28,1016.62,2029.35,876.95,1205.03,1357.71,599.80,595.89,55.39,0000 0000 0000 0000 000000
2017-03-28 08:58:13,0.10,14.13,0.00,22.94,26.14,29.84,14.70,52.26,1016.62,2029.05,876.44,1205.00,1357.09,600.14,596.29,55.44,0000 0000 0000 0000 000000
2017-03-28 09:03:14,0.03,14.14,0.00,22.92,26.17,29.94,14.64,52.27,1016.62,2029.02,876.02,1204.98,1357.00,600.13,596.22,55.49,0000 0000 0000 0000 000000
2017-03-28 09:08:15,0.04,14.14,0.00,22.84,26.20,30.15,14.59,52.13,1016.63,2029.00,875.99,1204.78,1356.98,600.21,596.53,55.54,0000 0000 0000 0000 000000
2017-03-28 09:13:16,0.19,14.15,0.00,22.82,26.23,30.25,14.65,52.11,1016.75,2029.00,875.60,1204.18,1356.52,599.73,596.26,55.59,0000 0000 0000 0000 000000
2017-03-28 09:18:17,0.07,14.15,0.00,22.84,26.26,30.34,14.60,52.20,1017.08,2028.99,875.02,1204.01,1356.04,599.81,596.46,55.64,0000 0000 0000 0000 000000
2017-03-28 09:23:18,0.00,14.15,0.00,22.81,26.27,30.42,14.66,52.17,1017.10,2028.97,874.98,1204.00,1356.00,600.10,596.75,55.69,0000 0000 0000 0000 000000
2017-03-28 09:28:20,0.10,14.16,0.00,22.75,26.30,30.42,14.61,52.23,1017.10,2028.82,874.37,1203.97,1355.87,599.89,596.53,55.75,0000 0000 0000 0000 000000
2017-03-28 09:33:21,0.04,14.16,0.00,22.73,26.31,30.41,14.62,52.13,1017.10,2028.49,874.00,1203.66,1355.18,600.15,596.85,55.80,0000 0000 0000 0000 000000
2017-03-28 09:38:22,0.02,14.16,0.00,22.74,26.32,30.33,14.56,52.01,1017.11,2028.13,873.88,1203.10,1355.00,599.77,596.61,55.85,0000 0000 0000 0000 000000
2017-03-28 09:43:24,0.12,14.17,0.00,22.71,26.34,30.35,14.60,51.88,1017.16,2028.05,873.17,1203.01,1354.98,600.00,596.86,55.90,0000 0000 0000 0000 000000
2017-03-28 09:48:25,0.03,14.17,0.00,22.68,26.35,30.32,14.63,51.86,1017.22,2028.02,873.00,1203.00,1354.62,600.08,597.29,55.95,0000 0000 0000 0000 000000
2017-03-28 09:53:26,0.07,14.17,0.00,22.70,26.35,30.30,14.60,51.73,1017.17,2028.01,872.81,1202.96,1354.07,600.10,597.05,56.00,0000 0000 0000 0000 000000
2017-03-28 09:58:27,0.12,14.18,0.00,22.72,26.35,30.32,14.65,51.95,1017.21,2028.01,872.10,1202.79,1354.00,600.36,597.26,56.05,0000 0000 0000 0000 000000
2017-03-28 10:03:28,0.08,14.18,0.00,22.68,26.37,30.30,14.71,52.11,1017.13,2028.00,871.99,1202.18,1353.96,600.17,597.12,56.10,0000 0000 0000 0000 000000
2017-03-28 10:08:29,0.12,14.19,0.00,22.68,26.37,30.31,14.67,52.01,1017.12,2028.00,871.68,1202.01,1353.43,600.14,597.16,56.15,0000 0000 0000 0000 000000
2017-03-28 10:13:31,0.08,14.19,0.00,22.68,26.37,30.26,14.58,51.99,1017.11,2028.00,871.06,1202.00,1353.04,599.82,596.86,56.20,0000 0000 0000 0000 000000
2017-03-28 10:18:31,0.00,14.20,0.00,22.65,26.37,30.26,14.56,51.96,1017.11,2028.00,870.99,1201.99,1353.00,599.71,596.72,56.25,0000 0000 0000 0000 000000
2017-03-28 10:23:33,0.08,14.20,0.00,22.63,26.37,30.30,14.61,51.93,1017.12,2028.00,870.63,1201.96,1352.99,599.99,596.97,56.30,0000 0000 0000 0000 000000
2017-03-28 10:28:34,0.14,14.20,0.00,22.65,26.37,30.28,14.65,52.03,1017.14,2028.00,870.04,1201.62,1352.60,600.13,597.10,56.35,0000 0000 0000 0000 000000
2017-03-28 10:33:36,0.06,14.21,0.00,22.62,26.37,30.28,14.63,51.97,1017.13,2028.00,870.00,1201.13,1352.06,599.96,597.20,56.40,0000 0000 0000 0000 000000
2017-03-28 10:38:37,0.04,14.21,0.00,22.64,26.38,30.29,14.64,51.98,1017.12,2028.00,869.86,1201.01,1352.00,600.05,597.17,56.45,0000 0000 0000 0000 000000
2017-03-28 10:43:38,0.11,14.22,0.00,22.68,26.38,30.27,14.63,51.84,1017.12,2028.00,869.12,1201.00,1351.99,599.92,596.81,56.50,0000 0000 0000 0000 000000
2017-03-28 10:48:40,0.01,14.22,0.00,22.65,26.38,30.27,14.66,51.91,1017.12,2028.00,868.98,1201.00,1351.88,600.25,597.11,56.55,0000 0000 0000 0000 000000
2017-03-28 10:53:41,0.14,14.22,0.00,22.66,26.38,30.25,14.76,52.02,1017.13,2028.00,868.55,1200.97,1351.17,599.90,596.82,56.60,0000 0000 0000 0000 000000
2017-03-28 10:58:42,0.09,14.23,0.00,22.64,26.38,30.24,14.61,51.99,1017.14,2028.00,868.03,1200.68,1351.00,599.92,596.99,56.65,0000 0000 0000 0000 000000
2017-03-28 11:03:44,0.05,14.23,0.00,22.61,26.38,30.25,14.58,52.11,1017.13,2028.00,867.98,1200.20,1350.99,600.01,597.16,56.71,0000 0000 0000 0000 000000
2017-03-28 11:08:45,0.09,14.24,0.00,22.64,26.38,30.29,14.60,52.00,1017.11,2028.00,867.66,1200.01,1350.86,599.74,596.67,56.76,0000 0000 0000 0000 000000
2017-03-28 11:13:46,0.10,14.24,0.00,22.64,26.37,30.26,14.68,52.02,1017.11,2028.00,867.06,1200.00,1350.30,599.93,596.98,56.81,0000 0000 0000 0000 000000
2017-03-28 11:18:47,0.01,14.25,0.00,22.64,26.37,30.25,14.61,52.00,1017.07,2028.00,866.99,1200.00,1350.02,599.90,596.92,56.86,0000 0000 0000 0000 000000
2017-03-28 11:23:49,0.09,14.25,0.00,22.67,26.38,30.24,14.65,51.92,1016.88,2028.00,866.61,1199.99,1350.00,600.07,596.87,56.91,0000 0000 0000 0000 000000
2017-03-28 11:28:50,0.06,14.25,0.00,22.64,26.38,30.23,14.66,52.02,1016.71,2028.01,866.04,1199.93,1349.94,599.97,596.97,56.96,0000 0000 0000 0000 000000
2017-03-28 11:33:51,0.13,14.26,0.00,22.63,26.38,30.22,14.69,52.17,1016.64,2028.00,865.97,1199.32,1349.38,600.42,597.15,57.01,0000 0000 0000 0000 000000
2017-03-28 11:38:53,0.13,14.26,0.00,22.65,26.37,30.24,14.59,52.22,1016.64,2028.00,865.43,1199.03,1349.03,599.88,596.63,57.06,0000 0000 0000 0000 000000
2017-03-28 11:43:54,0.03,14.27,0.00,22.63,26.37,30.25,14.63,52.15,1016.64,2028.00,865.01,1199.00,1349.00,600.06,596.79,57.11,0000 0000 0000 0000 000000
2017-03-28 11:48:55,0.00,14.27,0.00,22.64,26.37,30.25,14.57,52.29,1016.62,2028.00,865.00,1199.00,1348.96,599.99,596.68,57.16,0000 0000 0000 0000 000000
2017-03-28 11:53:57,0.13,14.27,0.00,22.64,26.37,30.21,14.59,52.38,1016.62,2028.00,864.64,1198.99,1348.54,599.89,596.65,57.21,0000 0000 0000 0000 000000
2017-03-28 11:58:58,0.08,14.28,0.00,22.61,26.37,30.24,14.64,52.54,1016.61,2028.00,864.03,1198.89,1348.04,599.92,596.83,57.26,0000 0000 0000 0000 000000
2017-03-28 12:03:59,0.08,14.28,0.00,22.59,26.37,30.27,14.57,52.63,1016.42,2028.00,863.96,1198.34,1348.00,599.99,596.80,57.31,0000 0000 0000 0000 000000
2017-03-28 12:09:00,0.12,14.29,0.00,22.59,26.37,30.25,14.65,52.99,1016.22,2028.01,863.50,1198.05,1347.96,599.76,596.24,57.36,0000 0000 0000 0000 000000
2017-03-28 12:14:02,0.07,14.29,0.00,22.60,26.37,30.24,14.65,53.07,1016.19,2028.01,863.02,1198.01,1347.56,600.29,596.85,57.41,0000 0000 0000 0000 000000
2017-03-28 12:19:03,0.03,14.30,0.00,22.58,26.37,30.23,14.70,52.95,1016.14,2028.01,862.93,1198.00,1347.02,600.16,596.77,57.46,0000 0000 0000 0000 000000
2017-03-28 12:24:04,0.12,14.30,0.00,22.57,26.37,30.22,14.59,52.80,1016.13,2028.02,862.20,1197.99,1347.00,599.82,596.25,57.51,0000 0000 0000 0000 000000
2017-03-28 12:29:06,0.03,14.30,0.00,22.49,26.37,30.21,14.61,53.04,1016.14,2028.03,862.00,1197.90,1346.92,599.90,596.61,57.57,0000 0000 0000 0000 000000
2017-03-28 12:34:07,0.22,14.31,0.00,22.47,26.35,30.20,14.66,52.92,1016.12,2028.02,861.53,1197.23,1346.20,599.68,596.52,57.62,0000 0000 0000 0000 000000
2017-03-28 12:39:09,0.06,14.32,0.00,22.46,26.35,30.18,14.55,52.95,1016.05,2028.05,861.02,1197.06,1346.01,599.61,596.42,57.67,0000 0000 0000 0000 000000
2017-03-28 12:44:10,0.02,14.32,0.00,22.45,26.34,30.20,14.66,53.11,1015.77,2028.08,860.99,1197.00,1346.00,600.17,596.88,57.72,0000 0000 0000 0000 000000
2017-03-28 12:49:12,0.12,14.32,0.00,22.37,26.32,30.21,14.62,53.04,1015.73,2028.20,860.58,1197.00,1345.95,599.75,596.50,57.77,0000 0000 0000 0000 000000
2017-03-28 12:54:13,0.10,14.33,0.00,22.35,26.32,30.15,14.56,52.87,1015.82,2028.26,860.03,1196.99,1345.44,599.99,597.01,57.82,0000 0000 0000 0000 000000